Accueil
METAR-TAF:

METAR-TAF

Aéroports :

Aéroport Riviera Airport

Albenga, Italie

latitude: 44-03N, longitude: 008-07E, altitude: 45 m

Observation

Le bulletin a été fait il y a 48 minutes, à 09:50 UTC
Vent 13 kt de nord/nord-est avec des rafales jusqu'à 28 kt, variant entre nord/nord-ouest et nord-est
Température 11°C
Humidité 40%
Pression 1019 hPa
Visibilité 10 km ou plus
pas de nuages en-dessous de 1500 mètres et pas de cumulonimbus.

METAR: LIMG 180950Z 03013G28KT 330V050 CAVOK 11/M02 Q1019

Heure: 11:38 (10:38 UTC)


TAF: absent

Observations et prévisions météorologiques de plus de 4000 aéroports (messages METAR et TAF).

Les stations disponibles sont représentées par des disques jaunes et rouges sur la carte.

Passer la souris dessus pour voir le nom de la station.

Cliquer dessus pour voir les observations et prévisions météorologiques.

Pour changer de carte: cliquez sur les boutons verts avec une croix noire pour zoomer, sur le bouton vert avec un tiret pour effectuer un zoom arrière, ou sur les flèches vertes pour les cartes adjacentes.


METAR-TAF: